Home > Weather > Helena > Past weeks

Flag for USA Past Weather in Helena, Montana, USA — Yesterday and Last 2 Weeks

Now
69 °F

Clear.


Feels Like: 69 °F
Forecast: 59 / 85 °F
Wind: 8 mph from West

Location: Helena Regional Airport

Current Time: Jul 28, 2016 at 12:59:29 AM

Latest Report: Jul 27, 2016 at 11:53 PM


Visibility: 10 mi

Pressure: 30.13 "Hg (26.08 "Hg at 1239m altitude)

Humidity: 53%

Dew Point: 51 °F

Location of HelenaLocation

Past Weather in Helena — Graph

°F

Helena Temperature Yesterday

Maximum temperature yesterday: 87 °F (at 2:53 PM)
Minimum temperature yesterday: 56 °F (at 5:53 AM)
Average temperature yesterday: 72 °F

High & Low Weather Summary for the Past Weeks

 TemperatureHumidityPressure
High97 °F (Jul 22, 2:53 PM)84% (Jul 27, 5:53 AM)30.22 "Hg (Jul 27, 5:53 AM)
Low50 °F (Jul 14, 5:53 AM)9% (Jul 22, 2:53 PM)29.75 "Hg (Jul 22, 3:53 PM)
Average72 °F39%30.01 "Hg
* Reported Jul 12 11:53 PM — Jul 27 11:53 PM, Helena, Weather by CustomWeather, © 2016

Note: Actual official high and low records may vary slightly from our data, if they occured in-between our weather recording intervals... More about our weather records

Advertising

Helena Weather History for the Previous 24 Hours

Scroll right to see more
 ConditionsComfort  
Time TempWeatherWind HumidityBarometerVisibility
11:53 PM
Wed, Jul 27
69 °FClear.8 mph53%30.13 "Hg10 mi
10:53 PM70 °FClear.8 mph46%30.10 "Hg10 mi
9:53 PM72 °FSunny.6 mph43%30.08 "Hg10 mi
8:53 PM75 °FSunny.6 mph40%30.07 "Hg10 mi
7:53 PM79 °FBroken clouds.10 mph34%30.04 "Hg10 mi
6:53 PM80 °FSunny.6 mph35%30.05 "Hg10 mi
5:53 PM83 °FPassing clouds.7 mph31%30.06 "Hg10 mi
4:53 PM87 °FScattered clouds.16 mph25%30.04 "Hg10 mi
3:53 PM87 °FPassing clouds.9 mph25%30.06 "Hg10 mi
2:53 PM87 °FSunny.5 mph25%30.05 "Hg10 mi
1:53 PM84 °FSunny.3 mph30%30.07 "Hg10 mi
12:53 PM81 °FPassing clouds.6 mph35%30.10 "Hg10 mi
11:53 AM78 °FSunny.3 mph43%30.12 "Hg10 mi
10:53 AM74 °FPassing clouds.No wind48%30.13 "Hg10 mi
9:53 AM70 °FSunny.No wind55%30.14 "Hg10 mi
8:53 AM65 °FSunny.No wind63%30.16 "Hg10 mi
7:53 AM60 °FSunny.No wind75%30.14 "Hg10 mi
6:53 AM59 °FClear.No wind75%30.13 "Hg10 mi
5:53 AM56 °FClear.No wind84%30.09 "Hg10 mi
4:53 AM57 °FClear.3 mph81%30.08 "Hg10 mi
3:53 AM59 °FClear.No wind78%30.09 "Hg10 mi
2:53 AM63 °FClear.7 mph65%30.07 "Hg10 mi
1:53 AM65 °FPassing clouds.9 mph63%30.08 "Hg10 mi
12:53 AM65 °FClear.9 mph63%30.09 "Hg10 mi
Weather by CustomWeather, © 2016

See weather overviewHow to use our weather pages